TimeHST,TemperatureF,Dew PointF,Humidity,Sea Level PressureIn,VisibilityMPH,Wind Direction,Wind SpeedMPH,Gust SpeedMPH,PrecipitationIn,Events,Conditions,WindDirDegrees,DateUTC
12:54 AM,75.9,70.0,82,30.10,10.0,NE,15.0,23.0,N/A,,Clear,50,2012-10-12 10:54:00
1:54 AM,75.9,70.0,82,30.08,10.0,NE,16.1,-,N/A,,Clear,40,2012-10-12 11:54:00
2:54 AM,75.0,69.1,82,30.06,10.0,NE,15.0,21.9,N/A,,Clear,50,2012-10-12 12:54:00
3:54 AM,75.0,70.0,84,30.06,10.0,NE,13.8,-,N/A,,Clear,50,2012-10-12 13:54:00
4:54 AM,71.1,66.0,84,30.07,10.0,ESE,5.8,-,N/A,,Clear,110,2012-10-12 14:54:00
5:54 AM,66.9,64.0,90,30.09,10.0,Calm,Calm,-,N/A,,Clear,0,2012-10-12 15:54:00
6:54 AM,66.9,64.0,90,30.11,10.0,SE,5.8,-,N/A,,Clear,130,2012-10-12 16:54:00
7:54 AM,75.0,66.9,76,30.12,10.0,ESE,4.6,-,N/A,,Scattered Clouds,120,2012-10-12 17:54:00
8:54 AM,82.0,68.0,62,30.13,10.0,ENE,11.5,21.9,N/A,,Partly Cloudy,60,2012-10-12 18:54:00
9:54 AM,84.0,69.1,61,30.12,10.0,ENE,16.1,24.2,N/A,,Partly Cloudy,60,2012-10-12 19:54:00
10:54 AM,86.0,66.9,53,30.11,10.0,NE,19.6,31.1,N/A,,Partly Cloudy,50,2012-10-12 20:54:00
11:54 AM,86.0,68.0,55,30.08,10.0,NE,17.3,27.6,N/A,,Partly Cloudy,50,2012-10-12 21:54:00
12:54 PM,87.1,68.0,53,30.05,10.0,NE,17.3,32.2,N/A,,Partly Cloudy,50,2012-10-12 22:54:00
1:54 PM,86.0,70.0,59,30.03,10.0,NE,24.2,31.1,N/A,,Partly Cloudy,40,2012-10-12 23:54:00
2:54 PM,84.9,69.1,59,30.01,10.0,ENE,21.9,31.1,N/A,,Partly Cloudy,60,2012-10-13 00:54:00
3:54 PM,82.9,69.1,63,30.03,10.0,ENE,19.6,28.8,N/A,,Partly Cloudy,70,2012-10-13 01:54:00
4:54 PM,82.0,69.1,65,30.04,10.0,NE,19.6,27.6,N/A,,Partly Cloudy,50,2012-10-13 02:54:00
5:54 PM,79.0,69.1,72,30.06,10.0,NE,20.7,27.6,N/A,,Partly Cloudy,50,2012-10-13 03:54:00
6:54 PM,77.0,68.0,74,30.10,10.0,NE,13.8,24.2,N/A,,Partly Cloudy,50,2012-10-13 04:54:00
7:54 PM,75.9,66.9,74,30.13,10.0,ENE,10.4,-,N/A,,Partly Cloudy,60,2012-10-13 05:54:00
8:54 PM,75.9,68.0,76,30.15,10.0,NE,12.7,-,N/A,,Partly Cloudy,50,2012-10-13 06:54:00
9:54 PM,77.0,68.0,74,30.16,10.0,NNE,12.7,-,N/A,,Partly Cloudy,30,2012-10-13 07:54:00
10:54 PM,78.1,73.0,84,30.15,10.0,NNE,16.1,-,N/A,,Scattered Clouds,30,2012-10-13 08:54:00
11:54 PM,75.9,71.1,85,30.14,10.0,NE,15.0,-,N/A,,Mostly Cloudy,40,2012-10-13 09:54:00